Temperature
4 3 3 4 4 3 2 2 1 1 0 0 -1 -1 -0 -2 -4 -5 -7 -8 -8 -10 -10 -10 -10 -10 -11 -11 -12 -13 -13 -13 -13 -13 -13 -12 -12 -11 -11 -10 -10 -9 -8 -7
4 2 2 3 3 2 2 2 1 0 -0 0 1 0 -1 -3 -5 -7 -8 -8 -9 -10 -10 -11 -11 -12 -12 -12 -13 -13 -13 -13 -13 -13 -13 -13 -13 -13 -12 -11 -10 -10 -9 -8
3 1 2 2 2 2 2 2 1 -0 -0 0 -1 -1 -3 -5 -6 -8 -8 -9 -10 -10 -10 -11 -12 -12 -13 -13 -13 -14 -14 -14 -14 -14 -14 -14 -14 -13 -13 -12 -11 -11 -10 -9
1 1 4 3 2 2 2 1 0 0 -0 0 -1 -2 -3 -6 -7 -7 -8 -10 -10 -10 -11 -11 -12 -13 -13 -13 -14 -14 -14 -14 -14 -14 -14 -14 -14 -14 -13 -13 -12 -12 -11 -10
-1 1 1 2 2 2 1 1 1 0 0 -0 -2 -2 -5 -6 -7 -8 -9 -10 -10 -10 -11 -12 -12 -13 -13 -14 -14 -14 -14 -14 -15 -15 -15 -15 -15 -14 -14 -13 -13 -12 -12 -11
-2 2 4 3 2 2 1 -0 1 1 -0 -1 -3 -4 -5 -6 -7 -8 -9 -9 -10 -10 -11 -12 -13 -13 -14 -14 -14 -14 -14 -14 -15 -15 -15 -15 -15 -15 -14 -14 -14 -13 -13 -12
-2 -1 0 1 2 1 0 0 1 1 -1 -2 -4 -5 -6 -7 -7 -8 -8 -9 -9 -10 -11 -12 -13 -13 -14 -14 -14 -14 -14 -14 -14 -15 -15 -15 -15 -15 -15 -14 -14 -13 -13 -13
-2 -1 0 1 0 -0 1 1 1 -0 -2 -3 -5 -6 -7 -7 -7 -8 -8 -9 -9 -10 -10 -12 -13 -13 -14 -14 -14 -14 -14 -14 -14 -14 -15 -15 -15 -15 -15 -15 -15 -14 -14 -13
-0 1 1 2 2 2 2 1 -0 -1 -2 -4 -5 -7 -7 -7 -8 -8 -9 -9 -10 -10 -10 -11 -12 -13 -14 -14 -14 -14 -14 -14 -14 -14 -14 -15 -15 -15 -15 -15 -15 -15 -15 -14
-1 -1 1 2 2 1 1 0 -1 -2 -3 -4 -6 -7 -7 -7 -8 -8 -8 -9 -9 -10 -10 -11 -12 -13 -13 -14 -14 -14 -14 -14 -14 -14 -14 -14 -15 -15 -15 -15 -15 -15 -15 -14
-1 -0 1 1 1 1 0 -0 -1 -3 -4 -5 -6 -7 -7 -8 -8 -8 -8 -9 -9 -10 -10 -11 -11 -12 -13 -13 -14 -14 -13 -13 -13 -14 -14 -14 -14 -15 -15 -15 -15 -15 -15 -14
-0 1 1 1 1 1 0 -1 -2 -4 -4 -5 -6 -7 -7 -8 -8 -8 -9 -9 -9 -10 -10 -11 -11 -12 -12 -13 -13 -13 -13 -13 -14 -14 -15 -15 -15 -15 -14 -15 -15 -15 -15 -14
3 2 2 1 1 0 -0 -2 -3 -4 -5 -6 -6 -7 -7 -8 -8 -8 -9 -9 -10 -10 -11 -10 -11 -11 -11 -12 -12 -12 -13 -14 -14 -15 -15 -15 -15 -15 -15 -15 -15 -15 -15 -15
2 2 1 1 0 -0 -1 -3 -4 -5 -6 -6 -7 -7 -7 -7 -8 -8 -9 -9 -10 -10 -10 -10 -10 -10 -11 -11 -11 -12 -12 -13 -14 -14 -14 -15 -15 -15 -15 -15 -15 -15 -15 -15
1 2 1 1 0 -1 -2 -4 -4 -5 -6 -6 -7 -7 -7 -7 -8 -8 -9 -9 -9 -10 -10 -10 -10 -10 -10 -10 -11 -11 -12 -13 -14 -14 -14 -14 -14 -15 -15 -15 -16 -16 -16 -15
1 1 1 0 -0 -2 -3 -4 -5 -5 -6 -6 -7 -7 -7 -7 -8 -8 -9 -9 -9 -9 -9 -9 -9 -10 -10 -10 -11 -11 -12 -13 -13 -13 -13 -14 -14 -14 -14 -15 -15 -15 -16 -16
1 1 0 0 -1 -2 -4 -4 -5 -5 -6 -6 -7 -7 -7 -7 -7 -8 -8 -8 -8 -9 -9 -9 -9 -10 -10 -10 -11 -12 -12 -12 -12 -12 -13 -14 -14 -14 -14 -14 -15 -15 -15 -16
1 1 1 0 -1 -3 -4 -4 -5 -5 -6 -6 -7 -7 -7 -7 -7 -8 -8 -8 -7 -8 -8 -9 -9 -10 -10 -10 -11 -11 -11 -12 -12 -13 -14 -14 -14 -14 -14 -14 -14 -15 -15 -16
1 0 0 -1 -2 -3 -4 -4 -5 -5 -6 -6 -6 -7 -7 -7 -8 -8 -8 -8 -7 -7 -8 -8 -9 -9 -9 -10 -10 -11 -11 -12 -13 -13 -14 -14 -14 -14 -14 -14 -14 -15 -15 -16
0 0 -0 -2 -3 -3 -4 -4 -5 -6 -6 -6 -7 -7 -7 -7 -7 -7 -7 -7 -8 -8 -8 -9 -9 -9 -9 -10 -10 -10 -11 -12 -13 -13 -13 -12 -13 -14 -14 -14 -14 -15 -15 -16
0 -0 -1 -2 -3 -3 -4 -5 -5 -6 -6 -6 -7 -7 -7 -7 -7 -7 -7 -6 -7 -7 -8 -8 -8 -9 -10 -9 -9 -9 -10 -12 -13 -13 -12 -12 -12 -13 -14 -15 -15 -15 -15 -16
-0 -1 -2 -2 -3 -3 -4 -5 -5 -6 -6 -6 -7 -7 -7 -7 -7 -7 -7 -7 -7 -7 -8 -8 -8 -9 -9 -9 -9 -9 -10 -11 -12 -12 -12 -12 -12 -12 -13 -14 -15 -15 -15 -15
-0 -1 -2 -3 -3 -4 -4 -5 -6 -6 -6 -6 -7 -7 -7 -7 -7 -6 -6 -7 -7 -7 -7 -7 -8 -8 -9 -9 -9 -9 -9 -10 -11 -12 -12 -12 -12 -12 -13 -13 -14 -14 -15 -15
-1 -2 -3 -3 -4 -4 -4 -5 -6 -6 -6 -7 -7 -7 -7 -7 -7 -7 -7 -7 -7 -7 -7 -7 -7 -8 -8 -9 -9 -9 -9 -10 -10 -11 -12 -12 -12 -12 -12 -13 -13 -13 -14 -14
-1 -2 -3 -3 -3 -4 -5 -5 -6 -6 -6 -7 -7 -7 -7 -7 -7 -7 -7 -7 -7 -7 -7 -7 -7 -7 -8 -8 -9 -9 -9 -9 -10 -10 -11 -11 -11 -12 -12 -12 -13 -13 -13 -13
-2 -2 -3 -3 -4 -4 -5 -5 -6 -6 -6 -7 -7 -7 -7 -7 -7 -7 -7 -7 -7 -7 -6 -7 -7 -7 -7 -8 -9 -9 -9 -9 -9 -9 -10 -10 -10 -10 -11 -12 -12 -12 -13 -13
-2 -3 -3 -4 -4 -4 -5 -6 -6 -6 -6 -7 -7 -7 -7 -7 -7 -7 -7 -7 -6 -6 -6 -6 -7 -7 -7 -8 -8 -9 -9 -9 -9 -9 -9 -9 -9 -10 -10 -10 -10 -11 -11 -12
Wind_Speed
2 3 4 4 3 2 5 5 5 6 7 11 9 9 11 9 9 12 12 12 12 12 11 11 12 13 14 14 14 15 16 16 17 16 16 16 17 17 18 18 19 18 16 15
3 3 4 4 4 3 4 3 5 6 8 6 7 8 9 8 9 12 12 12 13 15 13 12 12 14 15 14 14 14 15 15 16 17 17 16 16 17 17 17 17 18 16 15
4 5 4 5 6 6 4 4 5 6 6 7 9 10 9 6 7 10 12 12 13 13 12 11 11 13 14 14 13 14 14 15 15 16 17 17 18 18 17 16 16 16 16 15
2 6 5 3 2 4 2 6 6 6 7 8 8 8 2 4 6 8 9 10 10 11 12 10 9 11 12 12 12 13 13 13 14 15 16 16 16 16 15 13 13 12 13 15
2 3 9 4 3 4 2 5 3 4 7 7 6 6 1 4 5 5 5 6 7 8 8 10 11 12 13 12 12 13 14 14 14 14 15 15 15 15 14 12 11 12 11 13
4 1 6 2 4 4 3 5 4 3 6 6 6 7 3 4 5 5 5 6 7 8 8 10 10 11 12 12 12 13 14 14 13 13 14 13 13 14 14 13 13 13 12 12
4 6 8 4 4 5 2 4 2 2 3 2 2 3 4 5 6 6 6 7 8 8 9 10 11 11 12 12 12 14 14 14 13 13 13 11 11 12 13 14 14 13 13 12
5 4 8 5 7 6 6 2 1 1 1 1 2 3 5 6 7 8 9 9 8 9 10 10 10 10 12 13 13 13 14 14 13 13 12 13 11 11 11 11 12 10 11 12
9 7 2 5 6 4 3 1 2 3 2 2 1 2 4 6 7 7 9 9 8 9 11 10 9 9 12 14 13 14 14 14 13 14 11 11 10 9 9 9 9 10 9 11
5 6 5 3 3 3 4 4 5 5 4 3 1 2 4 6 7 8 8 8 9 10 11 12 10 13 12 14 14 14 15 14 13 12 11 9 10 9 8 8 9 11 10 11
5 4 2 3 4 5 5 7 7 6 5 4 2 2 3 5 6 8 10 10 10 10 12 13 13 14 15 14 13 14 15 14 14 13 11 10 10 8 11 8 11 11 7 8
7 6 6 5 5 7 7 6 6 6 5 3 3 2 4 5 5 6 9 10 12 12 14 14 14 15 15 14 13 14 15 15 14 13 12 12 11 11 14 14 17 17 14 12
4 5 6 7 6 5 6 6 6 6 5 3 2 2 4 4 6 8 10 11 12 14 14 14 15 16 15 14 15 16 16 17 14 14 13 14 14 12 11 11 14 15 14 15
5 7 6 5 5 6 7 8 8 7 5 4 2 2 4 5 6 8 9 10 12 13 14 13 15 16 16 15 17 17 17 18 17 13 13 13 13 11 9 8 8 7 10 13
6 6 7 8 8 8 7 7 6 5 3 2 3 3 5 6 8 9 10 11 12 13 13 14 15 16 16 15 17 18 16 14 13 12 12 12 12 10 8 8 7 7 6 8
9 9 10 9 9 8 7 6 6 5 3 1 2 4 5 6 8 9 10 10 11 13 14 14 15 17 16 17 17 15 13 20 19 13 12 12 11 11 10 8 7 6 6 5
11 9 8 8 8 7 7 6 6 6 4 2 2 4 6 7 7 9 11 10 10 11 12 13 15 17 16 15 15 12 11 14 21 15 12 12 12 11 10 8 7 6 5 6
8 8 9 9 10 9 8 7 7 7 4 2 0 3 5 6 8 11 13 13 12 11 10 12 14 14 13 13 12 10 11 12 13 13 13 13 14 12 11 9 7 6 4 5
8 9 9 9 10 10 9 8 7 6 4 2 1 3 5 6 7 9 10 10 10 12 13 14 21 17 15 15 15 8 11 13 14 14 13 18 16 12 12 10 7 4 3 2
9 9 10 10 9 8 9 8 8 6 4 2 1 3 6 7 8 9 9 7 6 7 12 14 13 13 12 11 16 9 12 14 15 14 13 13 13 13 13 12 9 4 2 1
11 10 11 10 9 8 9 9 8 7 5 2 0 3 6 8 8 8 8 8 9 11 12 17 12 12 11 13 15 10 12 13 13 12 12 12 12 13 13 13 12 9 6 3
10 10 11 10 10 9 7 7 7 7 5 2 1 3 6 7 8 7 6 5 9 17 11 7 10 16 19 17 9 11 12 13 12 11 10 10 10 11 11 12 11 10 8 6
11 10 11 11 10 9 8 6 6 6 5 3 2 3 5 6 6 5 8 8 8 16 10 7 17 22 21 12 10 12 13 14 12 11 9 8 8 8 9 10 9 9 7 6
11 11 10 9 9 9 8 7 6 5 4 3 3 4 5 5 5 4 5 13 16 15 7 13 21 21 19 10 10 11 12 13 12 10 8 7 6 6 7 7 7 7 7 7
11 10 10 11 10 8 8 7 6 5 4 3 4 5 4 4 4 6 6 8 13 13 7 13 19 20 14 9 11 12 12 13 14 12 9 7 7 7 6 6 6 7 7 6
10 10 10 8 7 7 7 7 5 5 4 3 2 2 3 4 5 5 5 6 8 11 8 8 11 13 10 10 10 12 12 14 14 14 11 8 7 7 7 7 8 7 7 6
9 8 7 6 5 7 7 7 6 6 5 4 3 2 3 4 4 5 6 5 6 6 6 8 10 10 10 11 11 12 13 14 14 14 13 11 8 7 7 8 7 8 8 8
Wind_Direction
268 360 293 250 244 188 172 188 212 263 283 296 306 315 316 327 338 345 346 344 348 346 341 339 342 341 340 338 339 340 340 341 340 337 335 336 338 341 340 340 341 339 341 346
273 322 298 242 208 181 176 199 242 274 283 269 299 316 325 336 348 347 343 345 347 343 340 339 341 342 339 335 335 337 337 337 338 339 340 339 340 343 342 341 340 342 344 346
287 321 354 275 205 181 203 224 232 255 262 301 320 327 331 352 2 348 343 345 344 339 335 332 336 338 333 331 330 335 335 335 337 339 340 342 344 344 342 340 340 342 344 347
325 12 293 283 123 156 242 271 249 245 273 301 310 316 23 53 4 345 342 340 334 332 331 325 326 331 328 327 330 334 334 334 336 337 338 339 344 343 340 337 338 339 340 345
77 313 282 295 229 178 213 285 258 247 291 313 332 317 125 50 9 342 334 327 322 323 318 320 325 329 329 328 331 335 337 336 335 335 337 338 343 340 338 336 339 339 342 344
120 271 268 270 160 133 109 299 275 268 306 329 351 337 336 22 355 343 337 327 321 320 320 322 320 326 328 328 331 334 335 333 331 332 334 334 341 338 338 341 345 347 345 344
171 231 267 234 144 114 125 273 298 340 344 353 318 288 339 357 349 346 336 322 320 321 321 318 318 324 325 325 325 326 328 329 330 330 326 332 336 334 336 343 343 345 345 343
163 213 265 196 141 173 215 234 7 51 73 357 309 337 344 343 339 339 332 325 322 323 321 317 315 321 320 320 318 320 322 323 324 323 323 333 329 326 331 336 338 338 343 344
193 213 257 176 180 186 162 123 92 123 102 86 22 329 330 331 330 329 326 323 325 320 318 316 313 316 315 315 315 318 318 316 314 315 314 315 318 319 325 329 333 337 344 345
243 259 237 210 161 104 84 109 116 115 109 109 130 321 333 332 333 331 327 328 329 325 321 317 316 318 312 312 315 315 313 312 311 311 307 304 312 318 320 320 321 330 343 340
251 260 163 164 145 124 109 112 111 101 99 106 106 4 339 322 322 326 331 331 329 326 320 318 318 315 314 315 313 312 311 309 310 310 302 298 299 298 306 302 308 324 331 328
216 202 164 170 142 137 140 140 134 127 113 85 69 14 334 320 317 321 327 329 326 322 319 316 316 313 311 311 312 311 313 313 313 313 311 310 306 301 298 308 317 321 325 331
156 136 121 121 111 118 124 121 115 119 125 122 86 16 340 323 325 328 325 324 322 317 316 315 315 313 313 314 316 314 313 315 315 316 315 312 309 304 301 306 314 320 323 328
149 121 121 141 134 118 114 111 104 97 97 104 80 14 346 324 319 321 317 315 314 314 315 316 315 314 314 316 317 316 316 317 320 313 311 311 312 310 301 302 311 314 319 323
135 125 133 125 120 117 117 117 118 124 125 91 31 360 341 329 319 314 310 312 315 317 318 319 317 315 317 319 320 320 321 321 321 322 324 324 323 320 310 301 300 301 303 314
112 103 118 132 142 141 137 142 151 162 160 144 346 334 324 310 303 303 306 312 320 320 318 317 317 317 320 322 325 324 323 330 338 337 332 327 322 316 309 301 293 285 284 286
135 146 156 162 165 162 162 165 165 161 160 175 299 317 322 322 320 323 325 325 317 307 305 310 316 317 320 327 327 329 333 335 340 335 326 322 319 314 310 304 293 280 269 274
161 166 168 164 165 158 150 145 146 150 160 172 325 338 342 340 330 322 322 323 324 324 321 323 319 323 329 329 335 343 338 334 334 333 333 335 340 339 330 316 302 288 275 286
126 129 133 138 146 149 148 150 151 148 142 126 36 348 325 312 305 306 311 316 321 331 326 321 332 339 329 335 351 338 338 339 339 340 344 352 356 351 348 342 327 302 279 275
120 122 121 122 127 136 145 146 144 142 142 130 36 341 330 320 313 312 311 301 291 299 304 324 338 330 328 344 355 344 344 342 342 347 354 359 358 358 358 359 360 358 345 300
138 137 137 138 137 140 145 146 148 151 153 148 81 322 312 308 312 317 321 324 323 321 329 344 340 331 346 356 353 347 345 342 345 352 358 0 360 2 5 8 12 16 18 15
149 149 150 147 145 144 145 146 149 150 153 168 255 304 313 317 320 315 293 276 309 331 345 337 331 348 360 359 347 346 344 343 344 352 360 0 360 1 2 5 8 13 13 8
156 156 157 157 155 148 142 149 157 159 165 183 250 299 305 301 304 313 326 322 321 337 350 331 346 356 2 358 348 346 344 343 343 350 356 356 353 352 354 356 357 358 356 354
155 157 153 140 134 141 158 171 167 165 173 209 253 269 278 297 302 272 279 318 333 344 348 345 357 1 3 355 347 345 343 341 342 342 346 346 342 338 339 340 340 340 342 343
153 148 147 153 164 174 170 159 160 174 192 229 260 264 262 261 273 300 308 313 332 348 345 349 357 0 359 347 347 344 341 341 345 344 336 336 335 331 326 325 325 323 324 324
157 164 169 177 172 160 156 161 172 181 183 201 236 258 282 286 290 296 306 316 330 349 348 344 346 352 350 347 346 344 341 340 342 343 339 331 323 322 318 316 311 308 306 303
138 145 151 154 161 163 165 172 177 179 180 185 207 249 286 300 311 323 329 333 338 341 340 346 348 348 347 348 347 346 344 344 345 347 346 339 326 313 308 305 301 298 296 294
Height
1598 1599 1598 1595 1595 1596 1600 1602 1606 1603 1602 1596 1594 1591 1587 1584 1580 1578 1574 1569 1564 1558 1552 1545 1539 1532 1525 1519 1512 1505 1497 1490 1483 1477 1471 1464 1458 1451 1445 1440 1434 1429 1424 1420
1598 1600 1598 1597 1596 1597 1598 1599 1599 1600 1599 1593 1591 1588 1586 1582 1579 1576 1572 1567 1562 1556 1550 1544 1537 1530 1524 1517 1510 1504 1497 1490 1483 1476 1469 1463 1457 1450 1445 1439 1434 1429 1424 1420
1601 1602 1598 1597 1596 1596 1596 1596 1598 1600 1597 1591 1588 1586 1584 1580 1578 1575 1571 1566 1560 1555 1549 1543 1536 1530 1522 1516 1509 1503 1496 1489 1483 1476 1469 1463 1457 1450 1444 1439 1434 1429 1425 1421
1607 1604 1596 1594 1592 1593 1595 1595 1594 1594 1592 1590 1588 1585 1582 1579 1577 1573 1569 1564 1559 1553 1547 1542 1535 1529 1522 1516 1509 1502 1496 1489 1483 1476 1470 1463 1457 1450 1444 1439 1434 1430 1425 1422
1614 1610 1602 1594 1591 1592 1594 1594 1592 1592 1590 1588 1586 1583 1580 1579 1576 1572 1567 1562 1557 1552 1546 1540 1534 1527 1521 1514 1508 1502 1495 1489 1483 1477 1470 1464 1458 1452 1446 1440 1435 1431 1427 1422
1616 1605 1594 1589 1590 1590 1594 1595 1592 1590 1589 1587 1584 1583 1581 1578 1574 1570 1565 1561 1555 1550 1544 1538 1532 1526 1520 1513 1507 1501 1495 1489 1484 1478 1471 1465 1460 1453 1448 1442 1437 1432 1428 1424
1615 1613 1596 1589 1588 1591 1598 1595 1590 1588 1587 1585 1584 1584 1581 1576 1572 1568 1564 1559 1554 1548 1543 1537 1531 1525 1519 1513 1507 1501 1495 1490 1484 1478 1471 1466 1460 1454 1449 1444 1438 1434 1429 1425
1611 1612 1599 1585 1587 1591 1590 1588 1587 1586 1585 1583 1582 1580 1577 1574 1570 1566 1562 1557 1552 1546 1541 1536 1530 1524 1518 1512 1506 1500 1495 1489 1483 1477 1471 1465 1459 1454 1449 1444 1439 1435 1430 1426
1591 1587 1581 1582 1583 1585 1586 1586 1585 1583 1582 1580 1579 1577 1574 1571 1568 1564 1560 1555 1550 1545 1540 1535 1529 1523 1516 1510 1504 1498 1492 1486 1481 1475 1470 1464 1459 1453 1448 1444 1440 1436 1432 1428
1584 1579 1579 1581 1582 1583 1584 1583 1582 1580 1579 1578 1577 1575 1572 1569 1566 1563 1558 1554 1549 1543 1538 1533 1527 1521 1515 1508 1502 1496 1489 1483 1477 1471 1466 1462 1457 1453 1448 1443 1440 1437 1433 1429
1579 1577 1578 1579 1580 1581 1581 1580 1579 1577 1577 1576 1575 1573 1571 1568 1565 1561 1557 1553 1548 1542 1537 1531 1525 1519 1513 1506 1499 1492 1485 1479 1473 1467 1462 1457 1454 1450 1446 1443 1440 1437 1434 1431
1573 1571 1573 1576 1578 1579 1579 1577 1576 1575 1575 1574 1574 1572 1570 1567 1564 1561 1557 1552 1547 1542 1536 1530 1524 1517 1511 1504 1497 1490 1482 1475 1469 1463 1458 1453 1449 1445 1443 1441 1437 1435 1433 1431
1567 1568 1571 1573 1576 1577 1576 1575 1574 1574 1574 1573 1572 1571 1569 1566 1564 1560 1557 1552 1547 1541 1535 1529 1522 1516 1509 1502 1496 1488 1481 1473 1467 1461 1455 1450 1446 1441 1437 1434 1433 1431 1429 1428
1565 1567 1570 1572 1574 1574 1573 1572 1572 1572 1572 1572 1571 1570 1568 1566 1563 1560 1556 1552 1546 1541 1534 1528 1522 1516 1509 1501 1494 1486 1479 1472 1465 1459 1453 1448 1443 1439 1435 1431 1428 1426 1426 1425
1563 1566 1568 1570 1571 1571 1570 1570 1571 1571 1571 1571 1571 1569 1568 1566 1563 1560 1556 1551 1546 1540 1534 1528 1521 1515 1508 1500 1493 1485 1478 1470 1464 1459 1453 1447 1441 1436 1432 1429 1426 1423 1422 1423
1560 1563 1565 1567 1568 1568 1568 1568 1569 1570 1571 1571 1570 1569 1567 1566 1563 1560 1556 1551 1545 1539 1533 1527 1521 1515 1508 1500 1493 1485 1478 1471 1465 1458 1451 1445 1439 1434 1430 1426 1423 1421 1420 1420
1557 1560 1562 1564 1564 1565 1566 1567 1569 1570 1570 1570 1570 1569 1568 1566 1564 1561 1557 1552 1547 1541 1534 1528 1522 1515 1509 1502 1494 1486 1479 1471 1464 1457 1450 1443 1437 1431 1427 1423 1420 1418 1417 1417
1555 1558 1560 1561 1561 1562 1564 1566 1568 1569 1570 1570 1570 1569 1568 1566 1564 1561 1557 1553 1548 1543 1537 1530 1522 1516 1510 1503 1495 1488 1481 1473 1465 1458 1450 1443 1437 1431 1425 1421 1418 1416 1415 1415
1553 1556 1557 1558 1559 1560 1562 1564 1566 1568 1569 1569 1569 1569 1568 1566 1564 1561 1557 1552 1546 1540 1535 1528 1523 1518 1511 1504 1497 1491 1483 1475 1467 1459 1452 1445 1437 1430 1425 1421 1418 1416 1415 1414
1551 1554 1555 1555 1557 1559 1561 1563 1565 1567 1568 1569 1569 1569 1568 1566 1564 1561 1557 1553 1547 1541 1535 1529 1525 1518 1511 1506 1500 1494 1485 1477 1469 1462 1455 1447 1440 1433 1428 1424 1420 1417 1416 1415
1549 1551 1552 1553 1555 1557 1559 1562 1564 1565 1567 1568 1568 1568 1567 1566 1564 1561 1557 1553 1548 1542 1536 1532 1526 1519 1514 1509 1503 1496 1488 1479 1472 1466 1459 1452 1445 1439 1433 1428 1424 1421 1419 1417
1546 1548 1549 1551 1553 1555 1558 1560 1562 1564 1565 1567 1567 1567 1567 1566 1564 1561 1558 1553 1548 1542 1537 1533 1526 1521 1517 1512 1506 1498 1490 1482 1476 1470 1463 1457 1450 1444 1438 1433 1429 1426 1423 1421
1543 1545 1547 1549 1552 1554 1556 1558 1561 1562 1564 1565 1566 1567 1566 1565 1563 1560 1557 1553 1548 1543 1539 1534 1529 1524 1519 1514 1508 1501 1493 1485 1479 1474 1468 1461 1455 1450 1444 1439 1434 1430 1427 1424
1540 1543 1545 1547 1549 1552 1554 1557 1559 1561 1563 1564 1565 1566 1566 1565 1564 1561 1557 1553 1549 1544 1540 1535 1531 1525 1520 1515 1509 1503 1496 1488 1482 1477 1472 1466 1460 1454 1449 1444 1439 1435 1431 1427
1538 1540 1542 1544 1547 1550 1553 1555 1557 1559 1561 1563 1564 1565 1565 1564 1563 1561 1557 1554 1550 1545 1541 1536 1532 1527 1522 1516 1511 1505 1499 1492 1487 1481 1475 1469 1463 1458 1453 1447 1443 1438 1434 1430
1535 1537 1540 1543 1545 1548 1550 1552 1555 1557 1559 1561 1563 1563 1564 1563 1562 1560 1558 1554 1551 1546 1542 1537 1533 1528 1523 1518 1513 1508 1502 1496 1490 1484 1478 1472 1467 1461 1456 1450 1445 1440 1436 1431
1532 1534 1537 1539 1541 1544 1547 1550 1552 1555 1557 1559 1561 1562 1563 1563 1562 1560 1558 1555 1551 1547 1543 1539 1534 1529 1524 1520 1515 1510 1505 1499 1493 1488 1482 1476 1471 1465 1459 1453 1448 1442 1437 1432